AF5AA Weather Reports


Display with metric or nautical units.
time (UTC)temp
F
wind
direction
speed
MPH
gust
MPH
rain 1hr
in
rain 24hr
in
rain mn
in
humidity
%
barometer
mb
20260507153655 61 98 0.0 0.0 0.00 0.00 0.00 72 1018.6
20260507153151 61 125 1.0 2.0 0.00 0.00 0.00 74 1018.5
20260507152648 62 41 1.0 1.0 0.00 0.00 0.00 75 1018.4
20260507152144 61 127 0.0 0.0 0.00 0.00 0.00 75 1018.5
20260507151640 61 197 1.0 1.0 0.00 0.00 0.00 75 1018.3
20260507151137 60 96 0.0 0.0 0.00 0.00 0.00 79 1018.3
20260507150634 60 132 1.0 1.0 0.00 0.00 0.00 78 1018.6
20260507150131 60 113 0.0 1.0 0.00 0.00 0.00 78 1018.6
20260507145626 59 82 0.0 0.0 0.00 0.00 0.00 80 1018.6
20260507145124 59 106 2.0 3.0 0.00 0.00 0.00 78 1018.9
20260507144620 59 107 0.0 0.0 0.00 0.00 0.00 78 1019.1
20260507144119 59 105 0.0 0.0 0.00 0.00 0.00 80 1019.1
20260507143615 58 101 0.0 0.0 0.00 0.00 0.00 80 1018.9
20260507143112 58 117 0.0 0.0 0.00 0.00 0.00 79 1018.7
20260507142607 58 221 0.0 0.0 0.00 0.00 0.00 81 1018.3
20260507142105 58 82 0.0 1.0 0.00 0.00 0.00 81 1018.6
20260507141601 58 127 0.0 0.0 0.00 0.00 0.00 83 1018.6
20260507141058 58 85 0.0 0.0 0.00 0.00 0.00 84 1019.0
20260507140554 57 98 0.0 0.0 0.00 0.00 0.00 83 1019.1
20260507140052 57 108 0.0 0.0 0.00 0.00 0.00 83 1019.0
20260507135549 57 143 0.0 0.0 0.00 0.00 0.00 86 1018.6
20260507135046 56 117 0.0 0.0 0.00 0.00 0.00 86 1018.6
20260507134542 56 100 0.0 0.0 0.00 0.00 0.00 88 1018.5
20260507134038 56 123 0.0 0.0 0.00 0.00 0.00 87 1018.3
20260507133534 56 121 0.0 1.0 0.00 0.00 0.00 89 1018.6
20260507133032 55 71 0.0 0.0 0.00 0.00 0.00 89 1018.6
20260507132529 55 101 0.0 0.0 0.00 0.00 0.00 90 1018.7
20260507132025 55 95 0.0 0.0 0.00 0.00 0.00 90 1018.5
20260507131522 55 96 0.0 0.0 0.00 0.00 0.00 90 1018.6
20260507131019 55 104 0.0 0.0 0.00 0.00 0.00 90 1018.6
20260507130516 54 96 0.0 0.0 0.00 0.00 0.00 90 1018.6
20260507130015 54 83 0.0 0.0 0.00 0.00 0.00 90 1018.8
20260507125513 54 112 1.0 1.0 0.00 0.00 0.00 90 1018.4
20260507125011 54 90 0.0 0.0 0.00 0.00 0.00 90 1018.4
20260507124506 54 91 0.0 0.0 0.00 0.00 0.00 90 1018.4
20260507124004 54 89 0.0 0.0 0.00 0.00 0.00 90 1018.4
20260507123502 54 103 0.0 0.0 0.00 0.00 0.00 90 1018.3
20260507122957 53 108 1.0 1.0 0.00 0.00 0.00 89 1018.4
20260507122453 53 96 0.0 0.0 0.00 0.00 0.00 90 1018.4
20260507121950 53 98 0.0 0.0 0.00 0.00 0.00 90 1018.2
20260507121445 53 98 0.0 0.0 0.00 0.00 0.00 90 1018.1
20260507120942 53 243 0.0 0.0 0.00 0.00 0.00 90 1018.2
20260507120438 53 111 0.0 0.0 0.00 0.00 0.00 90 1018.0
20260507115935 53 110 0.0 0.0 0.00 0.00 0.00 90 1017.9
20260507115431 53 106 0.0 0.0 0.00 0.00 0.00 90 1017.9
20260507114927 53 99 0.0 0.0 0.00 0.00 0.00 90 1017.9
20260507114423 53 100 0.0 0.0 0.00 0.00 0.00 89 1017.8
20260507113921 53 89 0.0 0.0 0.00 0.00 0.00 90 1017.7
20260507113417 53 114 0.0 0.0 0.00 0.00 0.00 89 1017.6
20260507112915 53 104 0.0 0.0 0.00 0.00 0.00 89 1017.6
20260507112412 53 103 0.0 0.0 0.00 0.00 0.00 89 1017.4
20260507111909 53 103 0.0 0.0 0.00 0.00 0.00 89 1017.3
20260507111406 53 116 0.0 0.0 0.00 0.00 0.00 89 1017.6
20260507110902 54 118 0.0 0.0 0.00 0.00 0.00 88 1017.3
20260507110359 54 119 0.0 0.0 0.00 0.00 0.00 88 1017.3
20260507105856 54 110 0.0 0.0 0.00 0.00 0.00 88 1017.1
20260507105352 54 105 0.0 0.0 0.00 0.00 0.00 88 1016.9
20260507104849 54 106 0.0 0.0 0.00 0.00 0.00 88 1016.6
20260507104346 54 104 0.0 0.0 0.00 0.00 0.00 87 1016.3
20260507103842 54 97 0.0 0.0 0.00 0.00 0.00 87 1016.1
20260507103338 54 104 0.0 0.0 0.00 0.00 0.00 88 1016.0
20260507102835 54 102 0.0 0.0 0.00 0.00 0.00 88 1016.0
20260507102331 54 88 0.0 0.0 0.00 0.00 0.00 87 1015.9
20260507101828 54 110 0.0 0.0 0.00 0.00 0.00 88 1016.0
20260507101327 54 106 0.0 0.0 0.00 0.00 0.00 87 1015.9
20260507100825 54 113 0.0 0.0 0.00 0.00 0.00 88 1015.8
20260507100323 53 92 0.0 0.0 0.00 0.00 0.00 88 1015.9
20260507095821 53 139 0.0 0.0 0.00 0.00 0.00 89 1015.6
20260507095317 53 108 0.0 0.0 0.00 0.00 0.00 88 1015.8
20260507094815 53 111 0.0 0.0 0.00 0.00 0.00 89 1015.5
20260507094311 53 98 0.0 0.0 0.00 0.00 0.00 90 1015.5
20260507093808 53 99 0.0 0.0 0.00 0.00 0.00 90 1015.8
20260507093307 53 103 0.0 0.0 0.00 0.00 0.00 89 1015.4
20260507092804 53 109 0.0 0.0 0.00 0.00 0.00 89 1015.7
20260507092300 53 100 0.0 0.0 0.00 0.00 0.00 89 1015.3
20260507091757 54 100 0.0 0.0 0.00 0.00 0.00 88 1015.5
20260507091254 54 109 0.0 0.0 0.00 0.00 0.00 88 1015.3
20260507090754 54 102 0.0 0.0 0.00 0.00 0.00 87 1015.5
20260507090251 54 100 0.0 0.0 0.00 0.00 0.00 87 1015.1
20260507085748 54 101 0.0 0.0 0.00 0.00 0.00 86 1015.3
20260507085244 54 105 0.0 0.0 0.00 0.00 0.00 87 1015.2
20260507084742 54 102 0.0 0.0 0.00 0.00 0.00 86 1015.3
20260507084238 54 105 0.0 0.0 0.00 0.00 0.00 87 1015.2
20260507083736 54 102 0.0 0.0 0.00 0.00 0.00 86 1015.3
20260507083232 55 102 0.0 0.0 0.00 0.00 0.00 87 1015.5
20260507082728 55 104 0.0 0.0 0.00 0.00 0.00 87 1015.5
20260507082224 55 98 0.0 0.0 0.00 0.00 0.00 88 1015.5
20260507081721 55 95 0.0 0.0 0.00 0.00 0.00 87 1015.3
20260507081217 55 109 0.0 0.0 0.00 0.00 0.00 88 1015.5
20260507080714 55 98 0.0 1.0 0.00 0.00 0.00 88 1015.5
20260507080210 55 110 0.0 0.0 0.00 0.00 0.00 89 1015.1
20260507075705 55 109 0.0 0.0 0.00 0.00 0.00 89 1015.3
20260507075202 55 99 0.0 0.0 0.00 0.00 0.00 89 1015.2
20260507074658 55 91 0.0 0.0 0.00 0.00 0.00 90 1015.1
20260507074157 55 98 0.0 0.0 0.00 0.00 0.00 90 1015.3
20260507073653 55 98 0.0 0.0 0.00 0.00 0.00 89 1015.6
20260507073149 55 106 0.0 0.0 0.00 0.00 0.00 90 1015.6
20260507072647 55 83 1.0 1.0 0.00 0.00 0.00 89 1015.4
20260507072144 55 100 0.0 1.0 0.00 0.00 0.00 90 1015.9
20260507071642 55 102 0.0 0.0 0.00 0.00 0.00 89 1015.7
20260507071138 55 93 0.0 0.0 0.00 0.00 0.00 89 1016.1
20260507070635 55 102 0.0 0.0 0.00 0.00 0.00 90 1016.3
20260507070126 55 101 1.0 1.0 0.00 0.00 0.00 89 1016.2
20260507065622 55 97 0.0 0.0 0.00 0.00 0.00 89 1016.2
20260507065119 55 77 0.0 0.0 0.00 0.00 0.00 90 1016.1
20260507064617 56 95 0.0 0.0 0.00 0.00 0.00 90 1016.1
20260507064116 55 114 0.0 0.0 0.00 0.00 0.00 90 1016.2
20260507063613 56 98 0.0 0.0 0.00 0.00 0.00 90 1016.5
20260507063110 56 101 0.0 0.0 0.00 0.00 0.00 91 1016.2
20260507062606 55 103 0.0 0.0 0.00 0.00 0.00 91 1016.4
20260507062104 55 167 0.0 1.0 0.00 0.00 0.00 90 1016.5
20260507061601 56 105 0.0 0.0 0.00 0.00 0.00 91 1016.2
20260507061100 56 101 0.0 0.0 0.00 0.00 0.00 90 1016.6
20260507060557 56 93 0.0 0.0 0.00 0.00 0.00 90 1016.5
20260507060053 55 83 0.0 0.0 0.00 0.00 0.00 91 1016.0
20260507055548 55 74 0.0 0.0 0.00 0.00 0.00 90 1016.2
20260507055045 55 196 2.0 3.0 0.00 0.00 0.00 90 1016.4
20260507054541 56 137 0.0 1.0 0.00 0.00 0.00 90 1016.0
20260507054038 56 125 1.0 3.0 0.00 0.00 0.00 91 1015.9
20260507053536 56 119 0.0 0.0 0.00 0.00 0.00 91 1016.0
20260507053035 56 88 0.0 0.0 0.00 0.00 0.00 91 1016.1
20260507052532 56 92 0.0 0.0 0.00 0.00 0.00 92 1016.1
20260507052028 56 70 0.0 1.0 0.00 0.00 0.00 92 1016.4
20260507051527 56 107 0.0 0.0 0.00 0.00 0.00 91 1016.3
20260507051023 56 67 1.0 1.0 0.00 0.00 0.00 91 1016.3
20260507050519 56 135 0.0 0.0 0.00 0.00 0.00 91 1016.1
20260507050016 57 76 0.0 0.0 0.00 0.00 0.00 90 1016.3
20260507045513 57 73 0.0 1.0 0.00 0.00 0.00 91 1016.5
20260507045010 57 84 0.0 0.0 0.00 0.00 0.00 90 1016.5
20260507044506 57 117 1.0 1.0 0.00 0.00 0.00 91 1016.5
20260507044003 57 99 0.0 0.0 0.00 0.00 0.00 91 1016.0
20260507043459 57 111 0.0 0.0 0.00 0.00 0.00 91 1016.0
20260507042955 57 80 0.0 0.0 0.00 0.00 0.00 91 1016.2
20260507042452 57 349 1.0 1.0 0.00 0.00 0.00 91 1015.7
20260507041948 57 290 1.0 2.0 0.00 0.00 0.00 91 1015.8
20260507041445 57 91 0.0 0.0 0.00 0.00 0.00 91 1016.0
20260507040942 57 41 0.0 1.0 0.00 0.00 0.00 91 1016.0
20260507040438 57 108 0.0 0.0 0.00 0.00 0.00 91 1015.5
20260507035934 58 84 0.0 0.0 0.00 0.00 0.00 91 1015.6
20260507035431 58 97 1.0 2.0 0.00 0.00 0.00 91 1015.9
20260507034927 58 113 0.0 0.0 0.00 0.00 0.00 91 1015.8
20260507034424 58 76 0.0 0.0 0.00 0.00 0.00 92 1015.4
20260507033922 58 86 0.0 0.0 0.00 0.00 0.00 92 1015.4
20260507033420 58 84 0.0 0.0 0.00 0.00 0.00 92 1015.3
20260507032917 58 357 0.0 1.0 0.00 0.00 0.00 92 1015.5
20260507032414 58 100 0.0 0.0 0.00 0.00 0.00 92 1015.4
20260507031910 58 130 0.0 0.0 0.00 0.00 0.00 92 1015.2
20260507031406 59 70 0.0 1.0 0.00 0.00 0.00 93 1014.8
20260507030903 59 42 1.0 3.0 0.00 0.00 0.00 93 1015.0
20260507030401 59 87 0.0 1.0 0.00 0.00 0.00 94 1014.8
20260507025857 59 82 0.0 0.0 0.00 0.00 0.00 94 1014.9
20260507025355 59 144 0.0 1.0 0.00 0.00 0.00 94 1014.6
20260507024853 59 59 0.0 1.0 0.00 0.00 0.00 94 1014.5
20260507024350 59 70 0.0 1.0 0.00 0.00 0.00 94 1014.3
20260507023845 60 161 0.0 1.0 0.00 0.00 0.00 94 1014.3
20260507023342 60 97 0.0 0.0 0.00 0.00 0.00 94 1014.2
20260507022840 60 99 0.0 0.0 0.00 0.00 0.00 95 1014.0
20260507022336 60 111 0.0 0.0 0.00 0.00 0.00 94 1014.4
20260507021832 60 95 0.0 0.0 0.00 0.00 0.00 94 1014.2
20260507021327 60 99 0.0 0.0 0.00 0.00 0.00 94 1014.0
20260507020826 60 110 0.0 0.0 0.00 0.00 0.00 95 1013.9
20260507020322 60 88 0.0 0.0 0.00 0.00 0.00 94 1014.0
20260507015819 60 105 0.0 0.0 0.00 0.00 0.00 94 1013.5
20260507015317 60 124 1.0 1.0 0.00 0.00 0.00 94 1012.6
20260507014813 61 105 0.0 0.0 0.00 0.00 0.00 95 1012.9
20260507014310 61 82 0.0 0.0 0.00 0.00 0.00 95 1012.9
20260507013806 61 97 0.0 0.0 0.00 0.00 0.00 95 1013.0
20260507013304 61 110 0.0 0.0 0.00 0.00 0.00 95 1013.0
20260507012801 61 71 0.0 0.0 0.00 0.00 0.00 95 1012.8
20260507012256 61 103 0.0 0.0 0.00 0.00 0.00 95 1012.9
20260507011754 61 45 0.0 0.0 0.00 0.00 0.00 95 1012.5
20260507011251 61 122 0.0 0.0 0.00 0.00 0.00 95 1012.8
20260507010750 61 93 0.0 0.0 0.00 0.00 0.00 95 1012.5
20260507010246 61 120 0.0 0.0 0.00 0.00 0.00 95 1012.6
20260507005744 61 80 0.0 0.0 0.00 0.00 0.00 95 1012.3
20260507005240 61 113 0.0 0.0 0.00 0.00 0.00 95 1012.3
20260507004737 61 98 0.0 0.0 0.00 0.00 0.00 95 1012.1
20260507004235 62 110 0.0 0.0 0.00 0.00 0.00 95 1012.3
20260507003730 62 96 0.0 0.0 0.00 0.00 0.00 95 1011.9
20260507003226 62 97 0.0 0.0 0.00 0.00 0.00 95 1012.3
20260507002722 61 107 0.0 0.0 0.00 0.00 0.00 94 1012.1
20260507002219 62 93 0.0 0.0 0.00 0.00 0.00 94 1011.9
20260507001715 62 286 1.0 2.0 0.00 0.00 0.00 94 1011.8
20260507001213 62 101 0.0 0.0 0.00 0.00 0.00 94 1012.3
20260507000709 62 95 0.0 1.0 0.00 0.00 0.00 93 1012.1
20260507000205 62 92 0.0 0.0 0.00 0.00 0.00 93 1012.6
20260506235702 62 131 1.0 1.0 0.00 0.00 0.00 93 1012.4
20260506235157 62 80 1.0 1.0 0.00 0.00 0.00 93 1011.8
20260506234654 62 0 0.0 1.0 0.00 0.00 0.00 93 1011.9
20260506234151 62 97 0.0 0.0 0.00 0.00 0.00 93 1012.1
20260506233649 62 104 0.0 0.0 0.00 0.00 0.00 93 1012.0
20260506233145 62 85 0.0 0.0 0.00 0.00 0.00 93 1011.8
20260506232641 62 99 0.0 0.0 0.00 0.00 0.00 93 1011.8
20260506232137 62 108 0.0 0.0 0.00 0.00 0.00 93 1012.0
20260506231634 62 65 0.0 0.0 0.00 0.00 0.00 92 1012.2
20260506231133 62 126 0.0 1.0 0.00 0.00 0.00 92 1012.1
20260506230629 62 77 0.0 0.0 0.00 0.00 0.00 92 1011.8
20260506230126 62 100 0.0 0.0 0.00 0.00 0.00 91 1011.7
20260506225623 62 102 0.0 1.0 0.00 0.00 0.00 92 1011.6
20260506225119 62 101 0.0 0.0 0.00 0.00 0.00 92 1011.7
20260506224616 62 72 0.0 0.0 0.00 0.00 0.00 91 1011.7
20260506224113 62 113 0.0 0.0 0.00 0.00 0.00 91 1011.8
20260506223609 62 103 0.0 0.0 0.00 0.00 0.00 91 1011.7
20260506223105 62 79 0.0 0.0 0.00 0.00 0.00 91 1011.5
20260506222602 62 100 0.0 0.0 0.00 0.00 0.00 91 1011.4
20260506222058 63 96 0.0 0.0 0.00 0.00 0.00 91 1011.6
20260506221556 63 135 1.0 1.0 0.00 0.00 0.00 91 1011.5
20260506221054 63 122 1.0 2.0 0.00 0.00 0.00 90 1011.3
20260506220550 63 89 0.0 0.0 0.00 0.00 0.00 90 1011.5
20260506220045 63 114 0.0 0.0 0.00 0.00 0.00 89 1010.9
20260506215543 64 64 0.0 0.0 0.00 0.00 0.00 89 1011.3
20260506215038 64 64 0.0 1.0 0.00 0.00 0.00 88 1011.3
20260506214535 64 75 0.0 0.0 0.00 0.00 0.00 88 1011.2
20260506214033 64 58 1.0 1.0 0.00 0.00 0.00 88 1011.1
20260506213531 64 92 0.0 0.0 0.00 0.00 0.00 88 1011.3
20260506213027 64 120 0.0 0.0 0.00 0.00 0.00 88 1011.4
20260506212524 64 95 0.0 0.0 0.00 0.00 0.00 88 1011.5
20260506212019 64 105 0.0 0.0 0.00 0.00 0.00 88 1011.5
20260506211515 64 167 0.0 1.0 0.00 0.00 0.00 87 1011.7
20260506211013 65 113 0.0 0.0 0.00 0.00 0.00 86 1011.6
20260506210509 65 113 0.0 0.0 0.00 0.00 0.00 85 1011.4
20260506210006 66 116 0.0 0.0 0.00 0.00 0.00 85 1011.1
20260506205502 65 91 0.0 0.0 0.00 0.00 0.00 86 1011.0
20260506204958 65 84 1.0 1.0 0.00 0.00 0.00 86 1010.9
20260506204456 65 108 0.0 0.0 0.00 0.00 0.00 85 1010.9
20260506203953 65 101 0.0 0.0 0.00 0.00 0.00 86 1010.6
20260506203450 65 134 1.0 1.0 0.00 0.00 0.00 84 1010.7
20260506202947 65 123 0.0 0.0 0.00 0.00 0.00 85 1010.7
20260506202444 64 116 0.0 1.0 0.00 0.00 0.00 86 1010.6
20260506201940 65 74 0.0 0.0 0.00 0.00 0.00 86 1011.1
20260506201438 65 103 0.0 1.0 0.00 0.00 0.00 85 1011.3
20260506200935 65 146 0.0 0.0 0.00 0.00 0.00 85 1010.9
20260506200431 64 76 0.0 0.0 0.00 0.00 0.00 86 1011.2
20260506195927 65 131 0.0 0.0 0.00 0.00 0.00 85 1011.3
20260506195425 65 113 0.0 0.0 0.00 0.00 0.00 84 1011.2
20260506194921 65 45 1.0 1.0 0.00 0.00 0.00 84 1011.3
20260506194419 65 92 0.0 0.0 0.00 0.00 0.00 83 1011.3
20260506193915 65 132 0.0 0.0 0.00 0.00 0.00 84 1011.6
20260506193412 65 108 0.0 0.0 0.00 0.00 0.00 84 1011.5
20260506192909 65 101 1.0 1.0 0.00 0.00 0.00 84 1011.6
20260506192406 65 19 0.0 1.0 0.00 0.00 0.00 84 1011.6
20260506191903 65 142 1.0 1.0 0.00 0.00 0.00 84 1011.4
20260506191359 65 116 0.0 0.0 0.00 0.00 0.00 83 1011.7
20260506190856 65 125 0.0 0.0 0.00 0.00 0.00 83 1011.4
20260506190352 65 99 0.0 0.0 0.00 0.00 0.00 84 1011.3
20260506185849 66 114 0.0 0.0 0.00 0.00 0.00 82 1011.0
20260506185346 66 53 0.0 1.0 0.00 0.00 0.00 81 1010.8
20260506184843 66 98 0.0 0.0 0.00 0.00 0.00 82 1010.7
20260506184340 66 32 1.0 2.0 0.00 0.00 0.00 82 1010.7
20260506183838 65 110 0.0 0.0 0.00 0.00 0.00 83 1010.6
20260506183333 66 93 0.0 0.0 0.00 0.00 0.00 82 1010.7
20260506182831 66 129 0.0 0.0 0.00 0.00 0.00 81 1010.3
20260506182327 67 104 0.0 1.0 0.00 0.00 0.00 82 1010.1
20260506181825 66 46 1.0 1.0 0.00 0.00 0.00 81 1010.4
20260506181323 66 113 1.0 1.0 0.00 0.00 0.00 82 1010.8
20260506180820 65 85 0.0 0.0 0.00 0.00 0.00 83 1011.1
20260506180316 64 74 0.0 1.0 0.00 0.00 0.00 84 1011.1
20260506175812 64 170 0.0 1.0 0.00 0.00 0.00 84 1012.3
20260506175309 63 130 0.0 1.0 0.00 0.00 0.00 84 1011.7
20260506174806 63 33 1.0 1.0 0.00 0.00 0.00 85 1011.6
20260506174303 62 110 0.0 0.0 0.00 0.00 0.00 86 1012.0
20260506173801 62 102 0.0 0.0 0.00 0.00 0.00 85 1012.2
20260506173258 62 115 0.0 0.0 0.00 0.00 0.00 85 1012.2
20260506172754 62 123 1.0 1.0 0.00 0.00 0.00 86 1012.1
20260506172251 62 93 0.0 0.0 0.00 0.00 0.00 86 1013.0
20260506171749 62 138 0.0 0.0 0.00 0.00 0.00 86 1013.2
20260506171246 61 13 1.0 1.0 0.00 0.00 0.00 86 1013.1
20260506170743 61 138 0.0 1.0 0.00 0.00 0.00 87 1013.3
20260506170239 62 183 0.0 1.0 0.00 0.00 0.00 87 1013.5
20260506165738 61 118 0.0 0.0 0.00 0.00 0.00 87 1013.4
20260506165235 61 180 0.0 0.0 0.00 0.00 0.00 88 1013.5
20260506164732 61 191 1.0 2.0 0.00 0.00 0.00 88 1013.8
20260506164229 61 96 0.0 0.0 0.00 0.00 0.00 88 1013.9
20260506163726 62 99 0.0 0.0 0.00 0.00 0.00 88 1014.1
20260506163220 62 101 0.0 0.0 0.00 0.00 0.00 88 1014.0
20260506162717 62 93 0.0 0.0 0.00 0.00 0.00 88 1013.7
20260506162215 62 148 0.0 0.0 0.00 0.00 0.00 88 1013.6
20260506161712 62 82 0.0 1.0 0.00 0.00 0.00 87 1013.6
20260506161209 62 67 0.0 0.0 0.00 0.00 0.00 88 1013.3
20260506160706 62 80 0.0 0.0 0.00 0.00 0.00 88 1013.3
20260506160203 62 39 0.0 1.0 0.00 0.00 0.00 88 1012.8
20260506155701 62 82 0.0 0.0 0.00 0.00 0.00 87 1012.6
20260506155158 62 79 0.0 0.0 0.00 0.00 0.00 88 1012.6